Flag for United Kingdom Weather past 2 weeks in Canvey Island, England, United Kingdom

Now
50 °F

Partly sunny.


Feels Like: 47 °F
Forecast: 46 / 58 °F
Wind: 8 mph from Northeast

Location: Southend Airport-On-Sea


UV Index: 3 (Moderate)

Visibility: 1 mi


Pressure: 29.89 "Hg

Humidity: 88%

Dew point: 46 °F

Location of Canvey IslandLocation

Historic Weather in Canvey Island

°F

Canvey Island temperature yesterday

Maximum temperature yesterday: 61 °F (at 12:50 PM)
Minimum temperature yesterday: 48 °F (at 8:50 PM)
Average temperature yesterday: 55 °F

Past Weeks' High & Low Weather Summary

 TemperatureHumidityPressure
High68 °F (Apr 17, 2:20 PM)100% (Apr 21, 12:20 AM)30.45 "Hg (Apr 21, 12:20 AM)
Low34 °F (Apr 16, 3:50 AM)34% (Apr 17, 1:20 PM)29.62 "Hg (Apr 20, 3:20 PM)
Average52 °F72%30.06 "Hg
* Reported Apr 10 6:20 AM — Apr 25 6:20 AM, Canvey Island, Weather by CustomWeather, © 2014

Note: Actual official high and low records may vary slightly from our data, if they occured in-between our weather recording intervals... More about our weather records

Advertising

Historic Weather Conditions — Data for Previous 24 hours

 ConditionsComfort  
Time TempWeatherWind HumidityBarometerVisibility
6:20 AM
Apr 25
50 °FPassing clouds.8 mph88%29.89 "Hg1 mi
5:50 AM48 °FFog.8 mph94%29.89 "Hg1 mi
5:20 AM48 °FPassing clouds.7 mph94%29.89 "Hg4 mi
4:50 AM48 °FPassing clouds.7 mph94%29.92 "Hg4 mi
3:50 AM48 °FPassing clouds.5 mph94%29.92 "Hg5 mi
2:50 AM48 °FPassing clouds.7 mph87%29.95 "Hg5 mi
1:50 AM48 °FClear.5 mph87%29.98 "Hg6 mi
12:50 AM48 °FClear.3 mph87%29.98 "Hg6 mi
11:50 PM
Apr 24
48 °FClear.5 mph87%30.01 "Hg10 mi
11:20 PM50 °FClear.5 mph88%30.01 "Hg10 mi
10:50 PM50 °FClear.6 mph94%30.01 "Hg10 mi
10:20 PM50 °FClear.5 mph88%30.01 "Hg10 mi
9:50 PM48 °FClear.5 mph94%30.04 "Hg10 mi
9:20 PM48 °FClear.5 mph94%30.04 "Hg10 mi
8:50 PM48 °FSunny.5 mph94%30.04 "Hg10 mi
8:20 PM50 °FSunny.6 mph88%30.04 "Hg10 mi
7:50 PM54 °FSunny.7 mph77%30.04 "Hg10 mi
7:20 PM55 °FSunny.9 mph77%30.04 "Hg10 mi
6:50 PM55 °FSunny.8 mph77%30.04 "Hg10 mi
6:20 PM57 °FSunny.10 mph77%30.04 "Hg10 mi
5:50 PM59 °FSunny.9 mph72%30.04 "Hg10 mi
5:20 PM59 °FSunny.8 mph72%30.04 "Hg10 mi
4:50 PM61 °FSunny.8 mph68%30.04 "Hg10 mi
4:20 PM59 °FPassing clouds.9 mph72%30.04 "HgN/A
3:50 PM61 °FPassing clouds.9 mph68%30.07 "HgN/A
3:20 PM59 °FPassing clouds.10 mph72%30.07 "HgN/A
2:50 PM61 °FPassing clouds.9 mph68%30.07 "HgN/A
2:20 PM61 °FPassing clouds.8 mph63%30.09 "HgN/A
1:50 PM59 °FPassing clouds.8 mph68%30.09 "HgN/A
1:20 PM61 °FPassing clouds.8 mph63%30.09 "HgN/A
12:50 PM61 °FPassing clouds.7 mph68%30.09 "HgN/A
12:20 PM59 °FPassing clouds.7 mph72%30.09 "HgN/A
11:50 AM59 °FPassing clouds.6 mph77%30.09 "HgN/A
11:20 AM57 °FPassing clouds.6 mph77%30.09 "HgN/A
10:50 AM59 °FScattered clouds.3 mph72%30.12 "HgN/A
10:20 AM57 °FScattered clouds.2 mph72%30.12 "HgN/A
9:50 AM57 °FScattered clouds.2 mph77%30.12 "HgN/A
9:20 AM55 °FScattered clouds.No wind77%30.12 "HgN/A
8:50 AM55 °FPassing clouds.2 mph82%30.12 "HgN/A
8:20 AM55 °FPassing clouds.2 mph82%30.12 "HgN/A
7:50 AM54 °FPassing clouds.2 mph82%30.12 "HgN/A
7:20 AM54 °FPassing clouds.No wind88%30.12 "HgN/A
Weather by CustomWeather, © 2014

See weather overview